Time,TemperatureF,DewpointF,PressureIn,WindDirection,WindDirectionDegrees,WindSpeedMPH,WindSpeedGustMPH,Humidity,HourlyPrecipIn,Conditions,Clouds,dailyrainin,SoftwareType,DateUTC
2013-05-28 00:01:00,49.6,47.4,30.06,ENE,68,0.9,1.1,92,0.00,,---,0.00,VWS V14.01,2013-05-28 04:01:00,
2013-05-28 00:06:00,49.6,47.4,30.06,SSE,158,3.6,3.6,92,0.00,,---,0.00,VWS V14.01,2013-05-28 04:06:00,
2013-05-28 00:11:00,49.6,47.7,30.03,ENE,68,2.9,2.9,93,0.00,,---,0.00,VWS V14.01,2013-05-28 04:11:00,
2013-05-28 00:16:00,49.6,47.7,30.03,NW,315,2.2,2.2,93,0.00,,---,0.00,VWS V14.01,2013-05-28 04:16:00,
2013-05-28 00:21:00,49.6,47.7,30.03,South,180,3.1,3.6,93,0.00,,---,0.00,VWS V14.01,2013-05-28 04:21:00,
2013-05-28 00:26:00,49.6,47.7,30.06,SE,135,2.7,3.8,93,0.00,,---,0.00,VWS V14.01,2013-05-28 04:26:00,
2013-05-28 00:31:00,49.6,47.7,30.06,NNE,22,1.6,2.0,93,0.00,,---,0.00,VWS V14.01,2013-05-28 04:31:00,
2013-05-28 00:36:00,49.5,47.5,30.06,NNE,22,3.4,3.4,93,0.00,,---,0.00,VWS V14.01,2013-05-28 04:36:00,
2013-05-28 00:41:00,49.5,47.8,30.06,ENE,68,0.0,0.0,94,0.00,,---,0.00,VWS V14.01,2013-05-28 04:41:00,
2013-05-28 00:46:00,49.5,47.8,30.06,NNE,22,1.3,1.3,94,0.00,,---,0.00,VWS V14.01,2013-05-28 04:46:00,
2013-05-28 00:51:00,49.5,47.8,30.06,NNE,22,2.0,2.7,94,0.00,,---,0.00,VWS V14.01,2013-05-28 04:51:00,
2013-05-28 00:56:00,49.5,47.8,30.06,NNW,338,2.0,2.7,94,0.00,,---,0.00,VWS V14.01,2013-05-28 04:56:00,
2013-05-28 01:01:00,49.5,47.8,30.06,SSW,202,2.0,2.0,94,0.00,,---,0.00,VWS V14.01,2013-05-28 05:01:00,
2013-05-28 01:06:00,49.5,48.1,30.06,West,270,1.6,3.8,95,0.00,,---,0.00,VWS V14.01,2013-05-28 05:06:00,
2013-05-28 01:11:00,49.5,47.8,30.09,ENE,68,0.9,0.9,94,0.00,,---,0.00,VWS V14.01,2013-05-28 05:11:00,
2013-05-28 01:16:00,49.5,47.8,30.09,NE,45,2.5,3.1,94,0.00,,---,0.00,VWS V14.01,2013-05-28 05:16:00,
2013-05-28 01:21:00,49.6,48.3,30.09,NE,45,3.1,3.1,95,0.00,,---,0.00,VWS V14.01,2013-05-28 05:21:00,
2013-05-28 01:26:00,49.5,48.1,30.06,WNW,292,2.9,3.6,95,0.00,,---,0.00,VWS V14.01,2013-05-28 05:26:00,
2013-05-28 01:31:00,49.6,48.3,30.06,ESE,112,2.5,3.1,95,0.00,,---,0.00,VWS V14.01,2013-05-28 05:31:00,
2013-05-28 01:36:00,49.6,48.3,30.06,ENE,68,2.0,2.7,95,0.00,,---,0.00,VWS V14.01,2013-05-28 05:36:00,
2013-05-28 01:41:00,49.6,48.3,30.03,WSW,248,3.6,3.6,95,0.00,,---,0.00,VWS V14.01,2013-05-28 05:41:00,
2013-05-28 01:46:00,49.6,48.3,30.03,East,90,1.6,1.6,95,0.00,,---,0.00,VWS V14.01,2013-05-28 05:46:00,
2013-05-28 01:51:00,49.6,48.3,30.03,NNW,338,2.0,2.0,95,0.00,,---,0.00,VWS V14.01,2013-05-28 05:51:00,
2013-05-28 01:56:00,49.8,48.5,30.03,NNE,22,3.4,4.3,95,0.00,,---,0.00,VWS V14.01,2013-05-28 05:56:00,
2013-05-28 02:01:00,49.8,48.5,30.03,NNE,22,2.9,3.8,95,0.00,,---,0.00,VWS V14.01,2013-05-28 06:01:00,
2013-05-28 02:06:00,49.8,48.5,30.03,ESE,112,4.0,4.0,95,0.00,,---,0.00,VWS V14.01,2013-05-28 06:06:00,
2013-05-28 02:11:00,49.8,48.5,30.06,SSW,202,2.5,3.8,95,0.00,,---,0.00,VWS V14.01,2013-05-28 06:11:00,
2013-05-28 02:16:00,49.8,48.5,30.06,ESE,112,3.8,3.8,95,0.00,,---,0.00,VWS V14.01,2013-05-28 06:16:00,
2013-05-28 02:21:00,49.8,48.5,30.06,NNE,22,5.8,5.8,95,0.00,,---,0.00,VWS V14.01,2013-05-28 06:21:00,
2013-05-28 02:26:00,50.0,48.6,30.03,South,180,3.6,3.6,95,0.00,,---,0.00,VWS V14.01,2013-05-28 06:26:00,
2013-05-28 02:30:00,50.0,48.6,30.03,SSW,202,2.9,4.3,95,0.00,,---,0.00,VWS V14.01,2013-05-28 06:30:00,
2013-05-28 02:35:00,50.0,48.6,30.03,SSE,158,4.7,4.7,95,0.00,,---,0.00,VWS V14.01,2013-05-28 06:35:00,
2013-05-28 02:40:00,50.0,48.6,30.03,ESE,112,6.3,6.3,95,0.00,,---,0.00,VWS V14.01,2013-05-28 06:40:00,
2013-05-28 02:45:00,50.0,48.6,30.03,ESE,112,2.5,2.5,95,0.00,,---,0.00,VWS V14.01,2013-05-28 06:45:00,
2013-05-28 02:50:00,50.0,48.6,30.03,ESE,112,2.5,2.5,95,0.00,,---,0.00,VWS V14.01,2013-05-28 06:50:00,
2013-05-28 02:55:00,50.2,48.8,30.00,NNE,22,3.1,3.1,95,0.00,,---,0.00,VWS V14.01,2013-05-28 06:55:00,
2013-05-28 03:00:00,50.2,49.1,30.00,SSE,158,2.5,2.5,96,0.00,,---,0.00,VWS V14.01,2013-05-28 07:00:00,
2013-05-28 03:05:00,50.2,49.1,30.00,NNW,338,3.8,3.8,96,0.00,,---,0.00,VWS V14.01,2013-05-28 07:05:00,
2013-05-28 03:10:00,50.2,49.1,30.00,NNW,338,2.7,2.7,96,0.00,,---,0.00,VWS V14.01,2013-05-28 07:10:00,
2013-05-28 03:15:00,50.2,49.1,30.00,NE,45,2.9,2.9,96,0.00,,---,0.00,VWS V14.01,2013-05-28 07:15:00,
2013-05-28 03:20:00,50.2,49.1,30.00,NNE,22,4.3,4.3,96,0.00,,---,0.00,VWS V14.01,2013-05-28 07:20:00,
2013-05-28 03:25:00,50.2,49.1,30.00,NE,45,0.0,0.0,96,0.00,,---,0.00,VWS V14.01,2013-05-28 07:25:00,
2013-05-28 03:30:00,50.2,49.1,30.00,NE,45,1.3,3.1,96,0.00,,---,0.00,VWS V14.01,2013-05-28 07:30:00,
2013-05-28 03:35:00,50.2,49.1,30.00,NNE,22,2.7,2.7,96,0.00,,---,0.00,VWS V14.01,2013-05-28 07:35:00,
2013-05-28 03:40:00,50.2,49.1,30.03,NE,45,1.6,2.0,96,0.00,,---,0.00,VWS V14.01,2013-05-28 07:40:00,
2013-05-28 03:45:00,50.2,49.1,30.03,NNE,22,2.9,2.9,96,0.00,,---,0.00,VWS V14.01,2013-05-28 07:45:00,
2013-05-28 03:50:00,50.2,49.1,30.03,NE,45,0.0,3.1,96,0.00,,---,0.00,VWS V14.01,2013-05-28 07:50:00,
2013-05-28 03:55:00,50.2,49.1,30.00,SSE,158,2.0,2.0,96,0.00,,---,0.00,VWS V14.01,2013-05-28 07:55:00,
2013-05-28 04:00:00,50.2,49.1,30.00,North,0,2.5,2.5,96,0.00,,---,0.00,VWS V14.01,2013-05-28 08:00:00,
2013-05-28 04:05:00,50.2,49.1,30.00,NNW,338,1.1,2.0,96,0.00,,---,0.00,VWS V14.01,2013-05-28 08:05:00,
2013-05-28 04:10:00,50.2,49.1,30.00,WSW,248,3.6,3.6,96,0.00,,---,0.00,VWS V14.01,2013-05-28 08:10:00,
2013-05-28 04:15:00,50.4,49.3,30.00,NNE,22,2.0,2.5,96,0.00,,---,0.00,VWS V14.01,2013-05-28 08:15:00,
2013-05-28 04:20:00,50.4,49.3,30.00,ENE,68,4.7,4.7,96,0.00,,---,0.00,VWS V14.01,2013-05-28 08:20:00,
2013-05-28 04:25:00,50.4,49.3,30.00,NW,315,1.1,1.1,96,0.00,,---,0.00,VWS V14.01,2013-05-28 08:25:00,
2013-05-28 04:30:00,50.4,49.0,30.00,NNE,22,2.0,2.0,95,0.00,,---,0.00,VWS V14.01,2013-05-28 08:30:00,
2013-05-28 04:35:00,50.4,49.3,30.00,NE,45,1.1,1.1,96,0.00,,---,0.00,VWS V14.01,2013-05-28 08:35:00,
2013-05-28 04:40:00,50.4,49.3,29.97,NNE,22,3.1,3.1,96,0.00,,---,0.00,VWS V14.01,2013-05-28 08:40:00,
2013-05-28 04:45:00,50.4,49.3,29.97,NNE,22,3.1,3.1,96,0.00,,---,0.00,VWS V14.01,2013-05-28 08:45:00,
2013-05-28 04:50:00,50.4,49.3,29.97,NNE,22,3.1,3.1,96,0.00,,---,0.00,VWS V14.01,2013-05-28 08:50:00,
2013-05-28 04:55:00,50.4,49.3,30.00,WSW,248,2.0,2.0,96,0.00,,---,0.00,VWS V14.01,2013-05-28 08:55:00,
2013-05-28 05:00:00,50.4,49.3,30.00,SW,225,2.9,2.9,96,0.00,,---,0.00,VWS V14.01,2013-05-28 09:00:00,
2013-05-28 05:05:00,50.4,49.3,30.00,NNE,22,1.6,1.6,96,0.00,,---,0.00,VWS V14.01,2013-05-28 09:05:00,
2013-05-28 05:10:00,50.5,49.5,30.00,WSW,248,2.7,3.1,96,0.00,,---,0.00,VWS V14.01,2013-05-28 09:10:00,
2013-05-28 05:15:00,50.4,49.3,30.00,ESE,112,2.5,5.4,96,0.00,,---,0.00,VWS V14.01,2013-05-28 09:15:00,
2013-05-28 05:20:00,50.5,49.5,30.00,ESE,112,2.5,2.5,96,0.00,,---,0.00,VWS V14.01,2013-05-28 09:20:00,
2013-05-28 05:25:00,50.5,49.5,30.03,ESE,112,2.5,2.5,96,0.00,,---,0.00,VWS V14.01,2013-05-28 09:25:00,
2013-05-28 05:30:00,50.5,49.5,30.03,ESE,112,2.5,2.5,96,0.00,,---,0.00,VWS V14.01,2013-05-28 09:30:00,
2013-05-28 05:35:00,50.5,49.5,30.03,ESE,112,2.5,2.5,96,0.00,,---,0.00,VWS V14.01,2013-05-28 09:35:00,
2013-05-28 05:40:00,50.5,49.5,30.00,NE,45,2.0,2.5,96,0.00,,---,0.00,VWS V14.01,2013-05-28 09:40:00,
2013-05-28 05:45:00,50.5,49.5,30.00,NE,45,2.0,2.0,96,0.00,,---,0.00,VWS V14.01,2013-05-28 09:45:00,
2013-05-28 05:50:00,50.5,49.5,30.00,NNE,22,3.6,3.6,96,0.00,,---,0.00,VWS V14.01,2013-05-28 09:50:00,
2013-05-28 05:55:00,50.7,49.3,30.00,NNE,22,3.6,3.6,95,0.00,,---,0.00,VWS V14.01,2013-05-28 09:55:00,
2013-05-28 06:00:00,50.7,49.6,30.00,NNE,22,3.6,3.6,96,0.00,,---,0.00,VWS V14.01,2013-05-28 10:00:00,
2013-05-28 06:05:00,50.7,49.6,30.00,NNE,22,3.6,3.6,96,0.00,,---,0.00,VWS V14.01,2013-05-28 10:05:00,
2013-05-28 06:10:00,50.7,49.6,30.00,NNE,22,3.6,3.6,96,0.00,,---,0.00,VWS V14.01,2013-05-28 10:10:00,
2013-05-28 06:15:00,50.7,49.6,30.00,NNE,22,1.3,1.3,96,0.00,,---,0.00,VWS V14.01,2013-05-28 10:15:00,
2013-05-28 06:20:00,50.7,49.6,30.00,NNE,22,1.3,1.3,96,0.00,,---,0.00,VWS V14.01,2013-05-28 10:20:00,
2013-05-28 06:25:00,50.9,49.8,29.97,NNE,22,1.3,1.3,96,0.00,,---,0.00,VWS V14.01,2013-05-28 10:25:00,
2013-05-28 06:30:00,50.9,49.8,29.97,NNW,338,0.9,2.2,96,0.00,,---,0.00,VWS V14.01,2013-05-28 10:30:00,
2013-05-28 06:35:00,50.9,49.8,29.97,ENE,68,1.1,1.1,96,0.00,,---,0.00,VWS V14.01,2013-05-28 10:35:00,
2013-05-28 06:40:00,50.9,49.8,30.00,WNW,292,2.2,2.2,96,0.00,,---,0.00,VWS V14.01,2013-05-28 10:40:00,
2013-05-28 06:45:00,50.9,49.8,30.00,NE,45,1.6,1.6,96,0.00,,---,0.00,VWS V14.01,2013-05-28 10:45:00,
2013-05-28 06:50:00,51.1,50.0,30.00,ESE,112,2.2,2.2,96,0.00,,---,0.00,VWS V14.01,2013-05-28 10:50:00,
2013-05-28 06:55:00,51.1,50.0,29.97,SSW,202,2.0,2.0,96,0.00,,---,0.00,VWS V14.01,2013-05-28 10:55:00,
2013-05-28 07:00:00,51.1,50.0,29.97,SSW,202,2.0,2.0,96,0.00,,---,0.00,VWS V14.01,2013-05-28 11:00:00,
2013-05-28 07:05:00,51.3,50.2,29.97,SSW,202,1.3,2.0,96,0.00,,---,0.00,VWS V14.01,2013-05-28 11:05:00,
2013-05-28 07:10:00,51.3,50.2,29.97,WSW,248,0.9,0.9,96,0.00,,---,0.00,VWS V14.01,2013-05-28 11:10:00,
2013-05-28 07:15:00,51.3,50.2,29.97,ESE,112,2.7,2.7,96,0.00,,---,0.00,VWS V14.01,2013-05-28 11:15:00,
2013-05-28 07:20:00,51.3,50.2,29.97,ESE,112,2.7,2.7,96,0.00,,---,0.00,VWS V14.01,2013-05-28 11:20:00,
2013-05-28 07:25:00,51.4,50.3,30.00,ESE,112,2.7,2.7,96,0.00,,---,0.00,VWS V14.01,2013-05-28 11:25:00,
2013-05-28 07:30:00,51.4,50.3,30.00,ESE,112,2.7,2.7,96,0.00,,---,0.00,VWS V14.01,2013-05-28 11:30:00,
2013-05-28 07:35:00,51.6,50.5,30.00,SW,225,2.7,2.7,96,0.00,,---,0.00,VWS V14.01,2013-05-28 11:35:00,
2013-05-28 07:40:00,51.6,50.5,30.00,SW,225,2.7,2.7,96,0.00,,---,0.00,VWS V14.01,2013-05-28 11:40:00,
2013-05-28 07:45:00,51.6,50.5,30.00,SW,225,2.7,2.7,96,0.00,,---,0.00,VWS V14.01,2013-05-28 11:45:00,
2013-05-28 07:50:00,51.8,50.7,30.00,North,0,3.4,3.4,96,0.00,,---,0.00,VWS V14.01,2013-05-28 11:50:00,
2013-05-28 07:55:00,51.8,50.7,30.00,North,0,3.4,3.4,96,0.00,,---,0.00,VWS V14.01,2013-05-28 11:55:00,
2013-05-28 08:00:00,52.0,50.9,30.00,North,0,3.4,3.4,96,0.00,,---,0.00,VWS V14.01,2013-05-28 12:00:00,
2013-05-28 08:04:00,52.2,51.1,30.00,North,0,3.4,3.4,96,0.00,,---,0.00,VWS V14.01,2013-05-28 12:04:00,
2013-05-28 08:09:00,52.2,51.1,30.00,North,0,3.4,3.4,96,0.00,,---,0.00,VWS V14.01,2013-05-28 12:09:00,
2013-05-28 08:14:00,52.3,51.2,30.00,North,0,3.4,3.4,96,0.00,,---,0.00,VWS V14.01,2013-05-28 12:14:00,
2013-05-28 08:19:00,52.3,51.2,30.00,North,0,3.4,3.4,96,0.00,,---,0.00,VWS V14.01,2013-05-28 12:19:00,
2013-05-28 08:24:00,52.5,51.4,30.00,North,0,3.4,3.4,96,0.00,,---,0.00,VWS V14.01,2013-05-28 12:24:00,
2013-05-28 08:29:00,52.5,51.4,30.00,North,0,3.4,3.4,96,0.00,,---,0.00,VWS V14.01,2013-05-28 12:29:00,
2013-05-28 08:34:00,52.5,51.4,30.00,NNW,338,2.7,2.7,96,0.00,,---,0.00,VWS V14.01,2013-05-28 12:34:00,
2013-05-28 08:39:00,52.7,51.9,30.00,NNW,338,1.3,2.7,97,0.00,,---,0.00,VWS V14.01,2013-05-28 12:39:00,
2013-05-28 08:44:00,52.7,51.6,30.00,NNE,22,2.0,2.0,96,0.00,,---,0.00,VWS V14.01,2013-05-28 12:44:00,
2013-05-28 08:49:00,52.7,51.9,30.00,WSW,248,0.0,2.5,97,0.00,,---,0.00,VWS V14.01,2013-05-28 12:49:00,
2013-05-28 08:54:00,52.7,51.9,30.00,SSW,202,1.3,2.5,97,0.00,,---,0.00,VWS V14.01,2013-05-28 12:54:00,
2013-05-28 08:59:00,52.7,51.9,30.00,WNW,292,0.0,2.0,97,0.00,,---,0.00,VWS V14.01,2013-05-28 12:59:00,
2013-05-28 09:04:00,52.9,52.3,30.00,WNW,292,1.1,2.5,98,0.00,,---,0.00,VWS V14.01,2013-05-28 13:04:00,
2013-05-28 09:09:00,53.1,52.5,29.97,ENE,68,2.5,2.5,98,0.00,,---,0.00,VWS V14.01,2013-05-28 13:09:00,
2013-05-28 09:14:00,53.1,52.5,29.97,NNW,338,0.0,0.0,98,0.00,,---,0.00,VWS V14.01,2013-05-28 13:14:00,
2013-05-28 09:19:00,53.2,52.7,29.97,NE,45,1.1,1.1,98,0.00,,---,0.00,VWS V14.01,2013-05-28 13:19:00,
2013-05-28 09:24:00,53.2,52.7,29.94,NNE,22,0.9,0.9,98,0.00,,---,0.00,VWS V14.01,2013-05-28 13:24:00,
2013-05-28 09:29:00,53.4,52.9,29.94,NE,45,2.2,2.2,98,0.00,,---,0.00,VWS V14.01,2013-05-28 13:29:00,
2013-05-28 09:34:00,53.4,52.9,29.94,NNW,338,0.0,3.8,98,0.00,,---,0.00,VWS V14.01,2013-05-28 13:34:00,
2013-05-28 09:39:00,53.4,52.9,29.94,NE,45,2.7,2.7,98,0.00,,---,0.00,VWS V14.01,2013-05-28 13:39:00,
2013-05-28 09:44:00,53.4,52.9,29.94,ENE,68,1.3,1.3,98,0.00,,---,0.00,VWS V14.01,2013-05-28 13:44:00,
2013-05-28 09:49:00,53.4,52.9,29.94,ENE,68,1.3,1.3,98,0.00,,---,0.00,VWS V14.01,2013-05-28 13:49:00,
2013-05-28 09:54:00,53.6,53.0,29.97,ENE,68,1.3,1.3,98,0.00,,---,0.00,VWS V14.01,2013-05-28 13:54:00,
2013-05-28 09:59:00,53.6,53.0,29.97,ENE,68,1.3,1.3,98,0.00,,---,0.00,VWS V14.01,2013-05-28 13:59:00,
2013-05-28 10:04:00,53.6,53.0,29.97,ENE,68,1.3,1.3,98,0.00,,---,0.00,VWS V14.01,2013-05-28 14:04:00,
2013-05-28 10:09:00,53.6,53.0,29.97,ENE,68,1.3,1.3,98,0.00,,---,0.00,VWS V14.01,2013-05-28 14:09:00,
2013-05-28 10:14:00,53.6,53.0,29.97,WSW,248,0.0,0.0,98,0.00,,---,0.00,VWS V14.01,2013-05-28 14:14:00,
2013-05-28 10:19:00,53.6,53.0,29.97,WSW,248,0.0,0.0,98,0.00,,---,0.00,VWS V14.01,2013-05-28 14:19:00,
2013-05-28 10:24:00,53.8,53.2,29.97,WSW,248,0.0,0.0,98,0.00,,---,0.00,VWS V14.01,2013-05-28 14:24:00,
2013-05-28 10:29:00,54.0,53.4,29.97,WSW,248,0.0,0.0,98,0.00,,---,0.00,VWS V14.01,2013-05-28 14:29:00,
2013-05-28 10:34:00,54.1,53.6,29.97,WSW,248,0.0,0.0,98,0.00,,---,0.00,VWS V14.01,2013-05-28 14:34:00,
2013-05-28 10:39:00,54.1,53.6,30.00,WSW,248,0.0,0.0,98,0.00,,---,0.00,VWS V14.01,2013-05-28 14:39:00,
2013-05-28 10:44:00,54.1,53.6,30.00,WSW,248,1.3,1.3,98,0.00,,---,0.00,VWS V14.01,2013-05-28 14:44:00,
2013-05-28 10:49:00,54.1,53.6,30.00,WSW,248,1.3,1.3,98,0.00,,---,0.00,VWS V14.01,2013-05-28 14:49:00,
2013-05-28 10:54:00,54.3,53.8,29.97,WSW,248,1.3,1.3,98,0.00,,---,0.00,VWS V14.01,2013-05-28 14:54:00,
2013-05-28 10:59:00,54.5,54.0,29.97,WSW,248,1.3,1.3,98,0.00,,---,0.00,VWS V14.01,2013-05-28 14:59:00,
2013-05-28 11:04:00,54.5,54.0,29.97,WSW,248,1.3,1.3,98,0.00,,---,0.00,VWS V14.01,2013-05-28 15:04:00,
2013-05-28 11:09:00,54.7,54.1,29.97,WSW,248,1.3,1.3,98,0.00,,---,0.00,VWS V14.01,2013-05-28 15:09:00,
2013-05-28 11:14:00,54.7,54.1,29.97,WSW,248,1.3,1.3,98,0.00,,---,0.00,VWS V14.01,2013-05-28 15:14:00,
2013-05-28 11:19:00,54.9,54.3,29.97,WSW,248,1.3,1.3,98,0.00,,---,0.00,VWS V14.01,2013-05-28 15:19:00,
2013-05-28 11:24:00,55.0,54.5,29.97,WSW,248,1.3,1.3,98,0.00,,---,0.00,VWS V14.01,2013-05-28 15:24:00,
2013-05-28 11:29:00,55.0,54.5,29.97,WSW,248,1.3,1.3,98,0.00,,---,0.00,VWS V14.01,2013-05-28 15:29:00,
2013-05-28 11:34:00,55.2,54.7,29.97,WSW,248,1.3,1.3,98,0.00,,---,0.00,VWS V14.01,2013-05-28 15:34:00,
2013-05-28 11:39:00,55.2,54.7,29.94,WSW,248,1.3,1.3,98,0.00,,---,0.00,VWS V14.01,2013-05-28 15:39:00,
2013-05-28 11:44:00,55.2,54.7,29.94,WSW,248,1.3,1.3,98,0.00,,---,0.00,VWS V14.01,2013-05-28 15:44:00,
2013-05-28 11:49:00,55.4,54.8,29.94,WSW,248,1.3,1.3,98,0.00,,---,0.00,VWS V14.01,2013-05-28 15:49:00,
2013-05-28 11:54:00,55.4,54.8,29.94,WSW,248,1.3,1.3,98,0.00,,---,0.00,VWS V14.01,2013-05-28 15:54:00,
2013-05-28 11:59:00,55.6,55.0,29.94,WSW,248,1.3,1.3,98,0.00,,---,0.00,VWS V14.01,2013-05-28 15:59:00,
2013-05-28 12:04:00,55.8,55.2,29.94,WSW,248,1.3,1.3,98,0.00,,---,0.00,VWS V14.01,2013-05-28 16:04:00,
2013-05-28 12:09:00,55.9,55.4,29.94,WSW,248,1.3,1.3,98,0.00,,---,0.00,VWS V14.01,2013-05-28 16:09:00,
2013-05-28 12:14:00,56.3,55.8,29.91,SE,135,3.1,3.1,98,0.00,,---,0.00,VWS V14.01,2013-05-28 16:14:00,
2013-05-28 12:19:00,56.8,56.3,29.91,ENE,68,2.9,2.9,98,0.00,,---,0.00,VWS V14.01,2013-05-28 16:19:00,
2013-05-28 12:24:00,57.4,56.8,29.91,SSW,202,2.7,2.7,98,0.00,,---,0.00,VWS V14.01,2013-05-28 16:24:00,
2013-05-28 12:29:00,57.6,57.0,29.94,NE,45,5.6,5.6,98,0.00,,---,0.00,VWS V14.01,2013-05-28 16:29:00,
2013-05-28 12:34:00,57.7,57.2,29.94,NE,45,5.6,5.6,98,0.00,,---,0.00,VWS V14.01,2013-05-28 16:34:00,
2013-05-28 12:39:00,57.9,57.4,29.94,SSE,158,2.0,2.0,98,0.00,,---,0.00,VWS V14.01,2013-05-28 16:39:00,
2013-05-28 12:44:00,58.3,57.7,29.94,SSE,158,2.0,2.0,98,0.00,,---,0.00,VWS V14.01,2013-05-28 16:44:00,
2013-05-28 12:49:00,58.6,58.1,29.94,SSE,158,2.0,2.0,98,0.00,,---,0.00,VWS V14.01,2013-05-28 16:49:00,
2013-05-28 12:54:00,59.0,58.4,29.94,SSE,158,2.0,2.0,98,0.00,,---,0.00,VWS V14.01,2013-05-28 16:54:00,
2013-05-28 12:59:00,59.0,58.4,29.94,SSW,202,2.0,2.0,98,0.00,,---,0.00,VWS V14.01,2013-05-28 16:59:00,
2013-05-28 13:04:00,59.2,58.6,29.94,SSW,202,2.0,2.0,98,0.00,,---,0.00,VWS V14.01,2013-05-28 17:04:00,
2013-05-28 13:09:00,59.2,58.6,29.94,SSW,202,2.0,2.0,98,0.00,,---,0.00,VWS V14.01,2013-05-28 17:09:00,
2013-05-28 13:14:00,59.2,58.6,29.94,SSW,202,1.3,1.3,98,0.00,,---,0.00,VWS V14.01,2013-05-28 17:14:00,
2013-05-28 13:19:00,59.4,58.8,29.94,SSW,202,2.5,2.5,98,0.00,,---,0.00,VWS V14.01,2013-05-28 17:19:00,
2013-05-28 13:24:00,59.4,58.8,29.94,ENE,68,2.2,2.2,98,0.00,,---,0.00,VWS V14.01,2013-05-28 17:24:00,
2013-05-28 13:29:00,59.5,59.0,29.94,ENE,68,2.2,2.2,98,0.00,,---,0.00,VWS V14.01,2013-05-28 17:29:00,
2013-05-28 13:34:00,59.7,59.2,29.94,WNW,292,4.0,4.0,98,0.00,,---,0.00,VWS V14.01,2013-05-28 17:34:00,
2013-05-28 13:39:00,59.9,59.3,29.94,WNW,292,4.0,4.0,98,0.00,,---,0.00,VWS V14.01,2013-05-28 17:39:00,
2013-05-28 13:44:00,59.9,59.3,29.94,WNW,292,4.0,4.0,98,0.00,,---,0.00,VWS V14.01,2013-05-28 17:44:00,
2013-05-28 13:49:00,60.1,59.5,29.94,WNW,292,4.0,4.0,98,0.00,,---,0.00,VWS V14.01,2013-05-28 17:49:00,
2013-05-28 13:54:00,59.9,59.3,29.94,WNW,292,4.0,4.0,98,0.00,,---,0.00,VWS V14.01,2013-05-28 17:54:00,
2013-05-28 13:59:00,59.9,59.3,29.91,WNW,292,4.0,4.0,98,0.00,,---,0.00,VWS V14.01,2013-05-28 17:59:00,
2013-05-28 14:04:00,59.7,59.2,29.91,WNW,292,4.0,4.0,98,0.00,,---,0.00,VWS V14.01,2013-05-28 18:04:00,
2013-05-28 14:09:00,59.7,59.2,29.91,WNW,292,4.0,4.0,98,0.00,,---,0.00,VWS V14.01,2013-05-28 18:09:00,
2013-05-28 14:14:00,59.5,59.0,29.88,WNW,292,4.0,4.0,98,0.00,,---,0.00,VWS V14.01,2013-05-28 18:14:00,
2013-05-28 14:19:00,59.7,59.2,29.88,SW,225,2.5,2.5,98,0.00,,---,0.00,VWS V14.01,2013-05-28 18:19:00,
2013-05-28 14:24:00,59.7,59.2,29.88,ENE,68,2.2,2.5,98,0.00,,---,0.00,VWS V14.01,2013-05-28 18:24:00,
2013-05-28 14:29:00,59.7,59.2,29.91,NE,45,2.5,2.5,98,0.00,,---,0.00,VWS V14.01,2013-05-28 18:29:00,
2013-05-28 14:34:00,59.7,59.2,29.91,NNE,22,2.7,3.8,98,0.00,,---,0.00,VWS V14.01,2013-05-28 18:34:00,
2013-05-28 14:39:00,59.7,59.2,29.91,NE,45,2.5,2.5,98,0.00,,---,0.00,VWS V14.01,2013-05-28 18:39:00,
2013-05-28 14:44:00,59.7,59.2,29.88,ENE,68,2.5,2.5,98,0.00,,---,0.00,VWS V14.01,2013-05-28 18:44:00,
2013-05-28 14:49:00,59.7,59.2,29.88,WNW,292,0.0,0.0,98,0.00,,---,0.00,VWS V14.01,2013-05-28 18:49:00,
2013-05-28 14:54:00,59.7,59.2,29.88,SW,225,1.1,1.6,98,0.00,,---,0.00,VWS V14.01,2013-05-28 18:54:00,
2013-05-28 14:59:00,59.9,59.3,29.91,NNW,338,0.0,0.9,98,0.00,,---,0.00,VWS V14.01,2013-05-28 18:59:00,
2013-05-28 15:04:00,60.1,59.5,29.91,NW,315,0.0,1.6,98,0.00,,---,0.00,VWS V14.01,2013-05-28 19:04:00,
2013-05-28 15:09:00,60.1,59.5,29.91,WNW,292,0.0,1.1,98,0.00,,---,0.00,VWS V14.01,2013-05-28 19:09:00,
2013-05-28 15:14:00,60.6,60.1,29.91,WNW,292,0.0,0.0,98,0.00,,---,0.00,VWS V14.01,2013-05-28 19:14:00,
2013-05-28 15:18:00,61.2,60.6,29.91,WNW,292,1.1,1.1,98,0.00,,---,0.00,VWS V14.01,2013-05-28 19:18:00,
2013-05-28 15:23:00,61.7,61.1,29.91,WSW,248,1.1,2.5,98,0.00,,---,0.00,VWS V14.01,2013-05-28 19:23:00,
2013-05-28 15:28:00,62.2,61.7,29.91,SSW,202,2.9,2.9,98,0.00,,---,0.00,VWS V14.01,2013-05-28 19:28:00,
2013-05-28 15:33:00,62.8,62.2,29.91,West,270,0.0,0.9,98,0.00,,---,0.00,VWS V14.01,2013-05-28 19:33:00,
2013-05-28 15:38:00,63.0,62.4,29.91,NNE,22,0.0,1.3,98,0.00,,---,0.00,VWS V14.01,2013-05-28 19:38:00,
2013-05-28 15:43:00,63.3,62.8,29.91,South,180,0.0,0.0,98,0.00,,---,0.00,VWS V14.01,2013-05-28 19:43:00,
2013-05-28 15:48:00,63.5,62.9,29.91,South,180,0.0,0.0,98,0.00,,---,0.00,VWS V14.01,2013-05-28 19:48:00,
2013-05-28 15:53:00,63.1,62.6,29.91,South,180,0.0,0.0,98,0.00,,---,0.00,VWS V14.01,2013-05-28 19:53:00,
2013-05-28 15:58:00,63.3,62.8,29.91,South,180,0.0,0.0,98,0.00,,---,0.00,VWS V14.01,2013-05-28 19:58:00,
2013-05-28 16:03:00,63.9,63.3,29.91,NNW,338,0.0,0.0,98,0.00,,---,0.00,VWS V14.01,2013-05-28 20:03:00,
2013-05-28 16:08:00,64.2,63.7,29.91,NNW,338,0.0,0.0,98,0.00,,---,0.00,VWS V14.01,2013-05-28 20:08:00,
2013-05-28 16:13:00,64.8,64.2,29.91,NNW,338,0.0,0.0,98,0.00,,---,0.00,VWS V14.01,2013-05-28 20:13:00,
2013-05-28 16:18:00,64.9,64.4,29.91,NNW,338,0.0,0.0,98,0.00,,---,0.00,VWS V14.01,2013-05-28 20:18:00,
2013-05-28 16:23:00,65.3,64.7,29.91,NNW,338,0.0,0.0,98,0.00,,---,0.00,VWS V14.01,2013-05-28 20:23:00,
2013-05-28 16:28:00,65.7,65.1,29.88,NNW,338,0.0,0.0,98,0.00,,---,0.00,VWS V14.01,2013-05-28 20:28:00,
2013-05-28 16:33:00,65.8,65.3,29.88,NNW,338,0.0,0.0,98,0.00,,---,0.00,VWS V14.01,2013-05-28 20:33:00,
2013-05-28 16:38:00,66.2,65.6,29.88,NNW,338,0.0,0.0,98,0.00,,---,0.00,VWS V14.01,2013-05-28 20:38:00,
2013-05-28 16:43:00,66.4,65.8,29.85,NNW,338,0.0,0.0,98,0.00,,---,0.00,VWS V14.01,2013-05-28 20:43:00,
2013-05-28 16:48:00,66.9,66.3,29.85,NNW,338,0.0,0.0,98,0.00,,---,0.00,VWS V14.01,2013-05-28 20:48:00,
2013-05-28 16:53:00,67.1,66.5,29.85,NNW,338,0.0,0.0,98,0.00,,---,0.00,VWS V14.01,2013-05-28 20:53:00,
2013-05-28 16:58:00,67.1,66.5,29.88,NNW,338,0.0,0.0,98,0.00,,---,0.00,VWS V14.01,2013-05-28 20:58:00,
2013-05-28 17:03:00,67.1,66.5,29.88,NNW,338,0.0,0.0,98,0.00,,---,0.00,VWS V14.01,2013-05-28 21:03:00,
2013-05-28 17:08:00,67.5,66.9,29.88,NNW,338,0.0,0.0,98,0.00,,---,0.00,VWS V14.01,2013-05-28 21:08:00,
2013-05-28 17:13:00,67.6,67.1,29.88,NNW,338,0.0,0.0,98,0.00,,---,0.00,VWS V14.01,2013-05-28 21:13:00,
2013-05-28 17:18:00,67.6,67.1,29.88,NNW,338,0.0,0.0,98,0.00,,---,0.00,VWS V14.01,2013-05-28 21:18:00,
2013-05-28 17:23:00,67.6,67.1,29.88,NNW,338,0.0,0.0,98,0.00,,---,0.00,VWS V14.01,2013-05-28 21:23:00,
2013-05-28 17:28:00,67.6,67.1,29.88,NNW,338,0.0,0.0,98,0.00,,---,0.00,VWS V14.01,2013-05-28 21:28:00,
2013-05-28 17:33:00,67.6,67.1,29.88,NNW,338,0.0,0.0,98,0.00,,---,0.00,VWS V14.01,2013-05-28 21:33:00,
2013-05-28 17:38:00,67.6,67.1,29.88,NNW,338,0.0,0.0,98,0.00,,---,0.00,VWS V14.01,2013-05-28 21:38:00,
2013-05-28 17:43:00,67.6,67.1,29.88,NNW,338,0.0,0.0,98,0.00,,---,0.00,VWS V14.01,2013-05-28 21:43:00,
2013-05-28 17:48:00,67.8,67.2,29.88,NNW,338,0.0,0.0,98,0.00,,---,0.00,VWS V14.01,2013-05-28 21:48:00,
2013-05-28 17:53:00,67.6,67.1,29.88,NNW,338,0.0,0.0,98,0.00,,---,0.00,VWS V14.01,2013-05-28 21:53:00,
2013-05-28 17:58:00,67.5,66.9,29.88,NNW,338,0.0,0.0,98,0.00,,---,0.00,VWS V14.01,2013-05-28 21:58:00,
2013-05-28 18:03:00,67.5,66.9,29.88,WSW,248,0.0,0.0,98,0.00,,---,0.00,VWS V14.01,2013-05-28 22:03:00,
2013-05-28 18:08:00,67.5,66.9,29.88,SSW,202,0.0,0.0,98,0.00,,---,0.00,VWS V14.01,2013-05-28 22:08:00,
2013-05-28 18:13:00,67.3,66.7,29.88,SW,225,0.0,0.0,98,0.00,,---,0.00,VWS V14.01,2013-05-28 22:13:00,
2013-05-28 18:18:00,67.1,66.5,29.88,WSW,248,0.0,0.0,98,0.00,,---,0.00,VWS V14.01,2013-05-28 22:18:00,
2013-05-28 18:23:00,66.9,66.3,29.88,WSW,248,0.0,0.0,98,0.00,,---,0.00,VWS V14.01,2013-05-28 22:23:00,
2013-05-28 18:28:00,66.6,66.0,29.88,WSW,248,2.9,2.9,98,0.00,,---,0.00,VWS V14.01,2013-05-28 22:28:00,
2013-05-28 18:33:00,66.7,66.2,29.88,WSW,248,2.9,2.9,98,0.00,,---,0.00,VWS V14.01,2013-05-28 22:33:00,
2013-05-28 18:38:00,66.6,66.0,29.88,WSW,248,0.0,0.0,98,0.00,,---,0.00,VWS V14.01,2013-05-28 22:38:00,
2013-05-28 18:43:00,66.6,66.0,29.85,WSW,248,0.0,0.0,98,0.00,,---,0.00,VWS V14.01,2013-05-28 22:43:00,
2013-05-28 18:48:00,66.6,66.0,29.85,WSW,248,0.0,0.0,98,0.00,,---,0.00,VWS V14.01,2013-05-28 22:48:00,
2013-05-28 18:53:00,66.7,66.2,29.85,WSW,248,0.0,0.0,98,0.00,,---,0.00,VWS V14.01,2013-05-28 22:53:00,
2013-05-28 18:58:00,66.7,66.2,29.85,WSW,248,0.0,0.0,98,0.00,,---,0.00,VWS V14.01,2013-05-28 22:58:00,
2013-05-28 19:03:00,66.7,66.2,29.85,WSW,248,0.0,0.0,98,0.00,,---,0.00,VWS V14.01,2013-05-28 23:03:00,
2013-05-28 19:08:00,66.7,66.2,29.85,WSW,248,0.0,0.0,98,0.00,,---,0.00,VWS V14.01,2013-05-28 23:08:00,
2013-05-28 19:13:00,66.9,66.3,29.85,WSW,248,0.0,0.0,98,0.00,,---,0.00,VWS V14.01,2013-05-28 23:13:00,
2013-05-28 19:18:00,66.9,66.3,29.85,WSW,248,0.0,0.0,98,0.00,,---,0.00,VWS V14.01,2013-05-28 23:18:00,
2013-05-28 19:23:00,66.9,66.3,29.85,WSW,248,0.0,0.0,98,0.00,,---,0.00,VWS V14.01,2013-05-28 23:23:00,
2013-05-28 19:28:00,67.1,66.5,29.85,WSW,248,0.0,0.0,98,0.00,,---,0.00,VWS V14.01,2013-05-28 23:28:00,
2013-05-28 19:33:00,66.9,66.3,29.85,WSW,248,0.0,0.0,98,0.00,,---,0.00,VWS V14.01,2013-05-28 23:33:00,
2013-05-28 19:38:00,66.9,66.3,29.85,WSW,248,0.0,0.0,98,0.00,,---,0.00,VWS V14.01,2013-05-28 23:38:00,
2013-05-28 19:43:00,66.9,66.3,29.85,WSW,248,0.0,0.0,98,0.00,,---,0.00,VWS V14.01,2013-05-28 23:43:00,
2013-05-28 19:48:00,66.9,66.3,29.85,WSW,248,0.0,0.0,98,0.00,,---,0.00,VWS V14.01,2013-05-28 23:48:00,
2013-05-28 19:53:00,66.9,66.3,29.85,WSW,248,0.0,0.0,98,0.00,,---,0.00,VWS V14.01,2013-05-28 23:53:00,
2013-05-28 19:58:00,66.9,66.3,29.85,WSW,248,0.0,0.0,98,0.00,,---,0.00,VWS V14.01,2013-05-28 23:58:00,
2013-05-28 20:03:00,66.9,66.3,29.85,WSW,248,0.0,0.0,98,0.00,,---,0.00,VWS V14.01,2013-05-29 00:03:00,
2013-05-28 20:08:00,66.9,66.3,29.85,WSW,248,0.0,0.0,98,0.00,,---,0.00,VWS V14.01,2013-05-29 00:08:00,
2013-05-28 20:13:00,66.7,66.2,29.85,WSW,248,0.0,0.0,98,0.00,,---,0.00,VWS V14.01,2013-05-29 00:13:00,
2013-05-28 20:18:00,66.7,66.2,29.85,WSW,248,0.0,0.0,98,0.00,,---,0.00,VWS V14.01,2013-05-29 00:18:00,
2013-05-28 20:23:00,66.7,66.2,29.85,WSW,248,0.0,0.0,98,0.00,,---,0.00,VWS V14.01,2013-05-29 00:23:00,
2013-05-28 20:28:00,66.6,66.0,29.85,WSW,248,0.0,0.0,98,0.00,,---,0.00,VWS V14.01,2013-05-29 00:28:00,
2013-05-28 20:33:00,66.6,66.0,29.85,WSW,248,0.0,0.0,98,0.00,,---,0.00,VWS V14.01,2013-05-29 00:33:00,
2013-05-28 20:38:00,66.6,66.0,29.85,WSW,248,0.0,0.0,98,0.00,,---,0.00,VWS V14.01,2013-05-29 00:38:00,
2013-05-28 20:43:00,66.6,66.0,29.85,WSW,248,0.0,0.0,98,0.00,,---,0.00,VWS V14.01,2013-05-29 00:43:00,
2013-05-28 20:48:00,66.4,65.8,29.85,WSW,248,0.0,0.0,98,0.00,,---,0.00,VWS V14.01,2013-05-29 00:48:00,
2013-05-28 20:53:00,66.4,65.8,29.85,WSW,248,0.0,0.0,98,0.00,,---,0.00,VWS V14.01,2013-05-29 00:53:00,
2013-05-28 20:58:00,66.4,65.8,29.82,WSW,248,0.0,0.0,98,0.00,,---,0.00,VWS V14.01,2013-05-29 00:58:00,
2013-05-28 21:03:00,66.4,65.8,29.82,WSW,248,0.0,0.0,98,0.00,,---,0.00,VWS V14.01,2013-05-29 01:03:00,
2013-05-28 21:08:00,66.4,65.8,29.82,WSW,248,0.0,0.0,98,0.00,,---,0.00,VWS V14.01,2013-05-29 01:08:00,
2013-05-28 21:13:00,66.6,66.0,29.85,WSW,248,0.0,0.0,98,0.00,,---,0.00,VWS V14.01,2013-05-29 01:13:00,
2013-05-28 21:18:00,66.6,66.0,29.85,WSW,248,0.0,0.0,98,0.00,,---,0.00,VWS V14.01,2013-05-29 01:18:00,
2013-05-28 21:23:00,66.4,65.8,29.85,WSW,248,0.0,0.0,98,0.00,,---,0.00,VWS V14.01,2013-05-29 01:23:00,
2013-05-28 21:28:00,66.4,65.8,29.82,WSW,248,0.0,0.0,98,0.00,,---,0.00,VWS V14.01,2013-05-29 01:28:00,
2013-05-28 21:33:00,66.6,66.0,29.82,WSW,248,0.0,0.0,98,0.00,,---,0.00,VWS V14.01,2013-05-29 01:33:00,
2013-05-28 21:38:00,66.4,65.8,29.82,WSW,248,0.0,0.0,98,0.00,,---,0.00,VWS V14.01,2013-05-29 01:38:00,
2013-05-28 21:42:00,66.6,66.0,29.82,WSW,248,0.0,0.0,98,0.00,,---,0.00,VWS V14.01,2013-05-29 01:42:00,
2013-05-28 21:47:00,66.6,66.0,29.82,WSW,248,0.0,0.0,98,0.00,,---,0.00,VWS V14.01,2013-05-29 01:47:00,
2013-05-28 21:52:00,66.6,66.0,29.82,WSW,248,0.0,0.0,98,0.00,,---,0.00,VWS V14.01,2013-05-29 01:52:00,
2013-05-28 21:57:00,66.7,66.2,29.85,WSW,248,0.0,0.0,98,0.00,,---,0.00,VWS V14.01,2013-05-29 01:57:00,
2013-05-28 22:02:00,66.9,66.3,29.85,WSW,248,0.0,0.0,98,0.00,,---,0.00,VWS V14.01,2013-05-29 02:02:00,
2013-05-28 22:07:00,66.9,66.3,29.85,WSW,248,0.0,0.0,98,0.00,,---,0.00,VWS V14.01,2013-05-29 02:07:00,
2013-05-28 22:12:00,66.9,66.3,29.85,WSW,248,0.0,0.0,98,0.00,,---,0.00,VWS V14.01,2013-05-29 02:12:00,
2013-05-28 22:17:00,67.1,66.5,29.85,WSW,248,0.0,0.0,98,0.00,,---,0.00,VWS V14.01,2013-05-29 02:17:00,
2013-05-28 22:22:00,66.9,66.3,29.85,WSW,248,0.0,0.0,98,0.00,,---,0.00,VWS V14.01,2013-05-29 02:22:00,
2013-05-28 22:27:00,66.9,66.3,29.85,WSW,248,0.0,0.0,98,0.00,,---,0.00,VWS V14.01,2013-05-29 02:27:00,
2013-05-28 22:32:00,66.9,66.3,29.85,WSW,248,0.0,0.0,98,0.00,,---,0.00,VWS V14.01,2013-05-29 02:32:00,
2013-05-28 22:37:00,66.9,66.3,29.85,WSW,248,0.0,0.0,98,0.00,,---,0.00,VWS V14.01,2013-05-29 02:37:00,
2013-05-28 22:42:00,66.9,66.3,29.85,WSW,248,0.0,0.0,98,0.00,,---,0.00,VWS V14.01,2013-05-29 02:42:00,
2013-05-28 22:47:00,66.9,66.3,29.85,WSW,248,0.0,0.0,98,0.00,,---,0.00,VWS V14.01,2013-05-29 02:47:00,
2013-05-28 22:52:00,66.9,66.3,29.85,WSW,248,0.0,0.0,98,0.00,,---,0.00,VWS V14.01,2013-05-29 02:52:00,
2013-05-28 22:57:00,66.9,66.3,29.88,NNE,22,1.1,1.1,98,0.00,,---,0.00,VWS V14.01,2013-05-29 02:57:00,
2013-05-28 23:02:00,66.9,66.3,29.88,NNW,338,0.0,0.0,98,0.00,,---,0.00,VWS V14.01,2013-05-29 03:02:00,
2013-05-28 23:07:00,66.9,66.3,29.88,WSW,248,1.1,1.1,98,0.00,,---,0.00,VWS V14.01,2013-05-29 03:07:00,
2013-05-28 23:12:00,66.9,66.3,29.88,SW,225,0.9,0.9,98,0.00,,---,0.00,VWS V14.01,2013-05-29 03:12:00,
2013-05-28 23:17:00,66.9,66.3,29.88,WNW,292,0.0,0.0,98,0.00,,---,0.00,VWS V14.01,2013-05-29 03:17:00,
2013-05-28 23:22:00,66.9,66.3,29.88,WNW,292,0.0,0.0,98,0.00,,---,0.00,VWS V14.01,2013-05-29 03:22:00,
2013-05-28 23:27:00,66.9,66.3,29.88,West,270,0.0,0.0,98,0.00,,---,0.00,VWS V14.01,2013-05-29 03:27:00,
2013-05-28 23:32:00,66.9,66.3,29.88,NW,315,0.0,0.0,98,0.00,,---,0.00,VWS V14.01,2013-05-29 03:32:00,
2013-05-28 23:37:00,66.7,66.2,29.88,WNW,292,0.0,0.0,98,0.00,,---,0.00,VWS V14.01,2013-05-29 03:37:00,
2013-05-28 23:42:00,66.7,66.2,29.88,WNW,292,0.0,0.0,98,0.00,,---,0.00,VWS V14.01,2013-05-29 03:42:00,
2013-05-28 23:47:00,66.9,66.3,29.88,WNW,292,0.0,0.0,98,0.00,,---,0.00,VWS V14.01,2013-05-29 03:47:00,
2013-05-28 23:52:00,66.7,66.2,29.88,WSW,248,0.0,1.3,98,0.00,,---,0.00,VWS V14.01,2013-05-29 03:52:00,
2013-05-28 23:57:00,66.9,66.3,29.88,WSW,248,0.0,0.0,98,0.00,,---,0.00,VWS V14.01,2013-05-29 03:57:00,